Meteo Giornale » Osservazioni meteo Francia » Grenoble-St Geoirs

ore: 23:00 - Osservazioni Meteo Grenoble-St Geoirs
Lat. 45° 22' N Lon. 5° 20' E Alt. 384 metri s.l.m.

sereno

16 °C

Sereno

Temp. 24 Ore

11 °C

27 °C

Nord

0 Km/h

Dew point 13 °C

Umidità 82 %

Visibilità  10 Km

Il sole sorge alle ore 07:00

Il sole tramonta alle ore 20:17

Data e Ora Cielo e Fenomeni T °C DP °C Um. % Pres. hPa Vis. km Vento km/h
Oggi h: 23:00 sereno Sereno 16 13 82 1021 10 N 0
Oggi h: 22:30 sereno Sereno 17 13 77 1021 10 N 0
Oggi h: 22:00 sereno Sereno 18 12 67 1021 10 N 0
Oggi h: 21:30 sereno Sereno 19 12 63 1021 10 N 0
Oggi h: 21:00 sereno Sereno 20 11 56 1020 10 SE 7.4
Oggi h: 20:30 sereno Sereno 21 12 56 1020 10 N/NE 9.3
Oggi h: 20:00 sereno Sereno 23 11 46 1020 10 N/NE 7.4
Oggi h: 19:30 sereno Sereno 25 12 44 1020 10 N 9.3
Oggi h: 19:00 sereno Sereno 25 11 41 1020 10 N 9.3
Oggi h: 18:30 sereno Sereno 26 10 36 1020 10 N 13
Oggi h: 18:00 sereno Sereno 27 11 36 1020 10 N 13
Oggi h: 17:30 sereno Sereno 27 10 34 1020 10 N 7.4
Oggi h: 17:00 sereno Sereno 27 11 36 1021 10 N/NO 13
Oggi h: 16:30 sereno Sereno 26 11 39 1021 10 N 9.3
Oggi h: 16:00 sereno Sereno 27 11 36 1021 10 N/NO 13
Oggi h: 15:30 sereno Sereno 27 11 36 1021 10 NO 14.8
Oggi h: 15:00 sereno Sereno 27 12 39 1021 10 N 9.3
Oggi h: 14:30 sereno Sereno 26 12 41 1022 10 N 11.1
Oggi h: 14:00 sereno Sereno 25 12 44 1022 10 N 11.1
Oggi h: 13:30 sereno Sereno 25 12 44 1022 10 N/NE 14.8
Oggi h: 13:00 sereno Sereno 25 11 41 1022 10 N 13
Oggi h: 12:30 sereno Sereno 24 11 43 1022 10 N 16.7
Oggi h: 12:00 sereno Sereno 24 12 47 1022 10 N/NE 14.8
Oggi h: 11:30 sereno Sereno 23 12 49 1022 10 N 9.3
Oggi h: 11:00 sereno Sereno 23 12 49 1023 10 N 11.1
Oggi h: 10:30 sereno Sereno 22 13 56 1023 10 N 3.7
Oggi h: 10:00 sereno Sereno 20 12 59 1022 10 N 1.8
Oggi h: 09:30 sereno Sereno 19 13 68 1022 10 N 3.7
Oggi h: 09:00 sereno Sereno 17 13 77 1022 10 N 3.7
Oggi h: 08:30 sereno Sereno 15 13 87 1022 10 N 5.5
Oggi h: 08:00 sereno Sereno 13 12 93 1022 10 N 3.7
Oggi h: 07:30 sereno Sereno 13 11 87 1022 10 N 3.7
Oggi h: 07:00 sereno Sereno 12 11 93 1022 10 N 5.5
Oggi h: 06:30 sereno Sereno 12 11 93 1022 10 N 5.5
Oggi h: 06:00 sereno Sereno 11 10 93 1022 10 E/SE 9.3
Oggi h: 05:30 sereno Sereno 12 11 93 1022 10 E/SE 9.3
Oggi h: 05:00 sereno Sereno 12 11 93 1022 10 N 5.5
Oggi h: 04:30 sereno Sereno 13 12 93 1022 10 N 3.7
Oggi h: 04:00 sereno Sereno 14 11 82 1022 10 N 3.7
Oggi h: 03:30 sereno Sereno 14 11 82 1022 10 N 5.5
Oggi h: 03:00 sereno Sereno 16 11 72 1022 10 N 3.7
Oggi h: 02:30 sereno Sereno 16 11 72 1022 10 SE 7.4
Oggi h: 02:00 sereno Sereno 17 11 67 1022 10 N 3.7
Oggi h: 01:30 sereno Sereno 17 11 67 1022 10 N 3.7
Oggi h: 01:00 sereno Sereno 17 11 67 1022 10 E 7.4
Oggi h: 00:30 sereno Sereno 19 11 59 1022 10 E/NE 9.3
Oggi h: 00:00 sereno Sereno 20 11 56 1022 10 N/NE 14.8